Philip, SD

11:40 AM MST on January 17, 2017 (GMT -0700)
Philip

Weather History for KPHP - March, 2013

Change the Weather History Date:

Thursday, March 14, 2013

  Actual Average Record
Temperature  
Mean Temperature 55 °F 34 °F  
Max Temperature 74 °F 47 °F 80 °F (2003)
Min Temperature 35 °F 21 °F -13 °F (1949)
Degree Days  
Heating Degree Days 10 31  
Month to date heating degree days 418 468  
Since 1 July heating degree days 5444 5833  
Cooling Degree Days 0 0  
Month to date cooling degree days 0 0  
Year to date cooling degree days 0 0  
Growing Degree Days 4 (Base 50)    
Moisture  
Dew Point 29 °F    
Average Humidity 45    
Maximum Humidity 70    
Minimum Humidity 20    
Precipitation  
Precipitation 0.00 in 0.04 in 0.49 in (1973)
Month to date precipitation T 0.57  
Year to date precipitation 0.82 1.35  
Sea Level Pressure  
Sea Level Pressure 30.04 in    
Wind  
Wind Speed 5 mph (West)    
Max Wind Speed 16 mph    
Max Gust Speed 20 mph    
Visibility 10 miles    
Events      
T = Trace of Precipitation, MM = Missing Value Source: NWS Daily Summary

Daily Weather History Graph

Daily Weather History Graph

Search for Another Location

Airport or City:

Trip Planner

Search our weather history database for the weather conditions in past years. The results will help you decide how hot, cold, wet, or windy it might be!

Date:

Astronomy

Mar. 14, 2013 Rise Set
Actual Time 6:59 AM MDT 6:51 PM MDT
Civil Twilight 6:31 AM MDT 7:20 PM MDT
Nautical Twilight 5:57 AM MDT 7:54 PM MDT
Astronomical Twilight 5:23 AM MDT 8:28 PM MDT
Moon 8:07 AM MDT (3/14) 10:18 PM MDT (3/14)
Length of Visible Light 12h 49m
Length of Day
11h 51m
Waxing Crescent, 9% of the Moon is Illuminated
Mar 14
Waxing Crescent
Mar 19
First Quarter
Mar 27
Full
Apr 2
Last Quarter
Apr 10
New

Hourly Weather History & Observations

Time (MDT) Temp. Windchill Dew Point Humidity Pressure Visibility Wind Dir Wind Speed Gust Speed Precip Events Conditions
12:55 AM 42.1 °F 37.1 °F 28.9 °F 60% 30.03 in 10.0 mi West 8.1 mph - N/A   Clear
1:55 AM 39.0 °F 35.7 °F 28.0 °F 65% 30.05 in 10.0 mi West 4.6 mph - N/A   Clear
2:55 AM 42.1 °F 36.1 °F 27.0 °F 55% 30.06 in 10.0 mi West 10.4 mph - N/A   Clear
3:55 AM 39.9 °F 35.1 °F 27.0 °F 60% 30.06 in 10.0 mi West 6.9 mph - N/A   Clear
4:55 AM 37.0 °F 32.4 °F 26.1 °F 65% 30.09 in 10.0 mi West 5.8 mph - N/A   Clear
5:55 AM 36.0 °F 32.1 °F 26.1 °F 67% 30.12 in 10.0 mi West 4.6 mph - N/A   Clear
6:55 AM 37.0 °F 33.3 °F 27.0 °F 67% 30.13 in 10.0 mi West 4.6 mph - N/A   Clear
7:55 AM 39.0 °F - 28.0 °F 65% 30.16 in 10.0 mi Calm Calm - N/A   Clear
8:55 AM 46.0 °F 44.8 °F 30.9 °F 56% 30.16 in 10.0 mi WSW 3.5 mph - N/A   Clear
9:55 AM 57.9 °F - 33.1 °F 39% 30.12 in 10.0 mi Calm Calm - N/A   Clear
10:55 AM 64.9 °F - 30.9 °F 28% 30.10 in 10.0 mi Variable 4.6 mph - N/A   Clear
11:55 AM 69.1 °F - 28.9 °F 22% 30.09 in 10.0 mi West 8.1 mph - N/A   Clear
12:55 PM 71.1 °F - 30.0 °F 22% 30.07 in 10.0 mi WNW 5.8 mph - N/A   Clear
1:55 PM 71.1 °F - 30.9 °F 23% 30.05 in 10.0 mi Variable 3.5 mph 17.3 mph N/A   Clear
2:55 PM 72.0 °F - 30.9 °F 22% 30.01 in 10.0 mi SW 12.7 mph 17.3 mph N/A   Clear
3:55 PM 72.0 °F - 28.9 °F 20% 29.99 in 10.0 mi West 6.9 mph - N/A   Clear
4:55 PM 72.0 °F - 28.9 °F 20% 29.98 in 10.0 mi WNW 6.9 mph - N/A   Clear
5:55 PM 68.0 °F - 28.9 °F 23% 29.98 in 10.0 mi NNE 3.5 mph - N/A   Mostly Cloudy
6:55 PM 63.0 °F - 28.9 °F 28% 29.97 in 10.0 mi Calm Calm - N/A   Scattered Clouds
7:55 PM 54.0 °F - 28.0 °F 37% 29.96 in 10.0 mi Calm Calm - N/A   Clear
8:55 PM 51.1 °F - 28.0 °F 41% 29.94 in 10.0 mi WNW 3.5 mph - N/A   Clear
9:55 PM 48.9 °F - 28.9 °F 46% 29.93 in 10.0 mi NW 8.1 mph - N/A   Clear
10:55 PM 46.9 °F - 28.0 °F 48% 29.92 in 10.0 mi West 8.1 mph - N/A   Clear
11:55 PM 43.0 °F 40.3 °F 27.0 °F 53% 29.89 in 10.0 mi WNW 4.6 mph - N/A   Clear